Weather History for North Padre Island, TX

Change the Weather History Date:

Tuesday, February 18, 2014

  Actual Average Record
Temperature  
Mean Temperature 66 °F -  
Max Temperature 69 °F - - ()
Min Temperature 64 °F - - ()
Cooling Degree Days 2    
Growing Degree Days 16 (Base 50)    
Moisture  
Dew Point 66 °F    
Average Humidity 98    
Maximum Humidity 100    
Minimum Humidity 88    
Precipitation  
Precipitation 0.00 in - - ()
Sea Level Pressure  
Sea Level Pressure 30.02 in    
Wind  
Wind Speed 15 mph (SE)    
Max Wind Speed 21 mph    
Max Gust Speed -    
Visibility 5 miles    
Events Fog    
T = Trace of Precipitation, MM = Missing Value Source: NWS Daily Summary

Daily Weather History Graph

Daily Weather History Graph

Search for Another Location

Airport:

Trip Planner

Search our weather history database for the weather conditions in past years. The results will help you decide how hot, cold, wet, or windy it might be!

Date:

Astronomy

Feb. 18, 2014 Rise Set
Actual Time 7:01 AM CST 6:22 PM CST
Civil Twilight 6:37 AM CST 6:45 PM CST
Nautical Twilight 6:10 AM CST 7:12 PM CST
Astronomical Twilight 5:43 AM CST 7:39 PM CST
Moon 9:50 PM CST 8:57 AM CST
Length of Visible Light 12h 07m
Length of Day
11h 20m
Waning Gibbous, 87% of the Moon is Illuminated
Feb 18
Waning Gibbous
Feb 22
Last Quarter
Mar 1
New
Mar 8
First Quarter
Mar 16
Full

Hourly Weather History & Observations

Time (CST) Temp. Dew Point Humidity Pressure Visibility Wind Dir Wind Speed Gust Speed Precip Events Conditions
12:15 AM 69.8 °F 69.8 °F 100% 30.06 in 4.0 mi ESE 15.0 mph - N/A   Clear
12:35 AM 69.8 °F 69.8 °F 100% 30.06 in 4.0 mi ESE 15.0 mph - N/A   Clear
12:55 AM 69.8 °F 69.8 °F 100% 30.05 in 4.0 mi ESE 17.3 mph - N/A   Clear
1:15 AM 69.8 °F 69.8 °F 100% 30.05 in 4.0 mi ESE 17.3 mph - N/A   Clear
1:35 AM 69.8 °F 69.8 °F 100% 30.05 in 3.0 mi ESE 17.3 mph - N/A   Clear
1:55 AM 69.8 °F 69.8 °F 100% 30.04 in 2.5 mi ESE 16.1 mph - N/A   Clear
2:15 AM 69.8 °F 69.8 °F 100% 30.04 in 2.5 mi SE 15.0 mph - N/A   Clear
2:35 AM 68.0 °F 68.0 °F 100% 30.04 in 3.0 mi SE 15.0 mph - N/A   Clear
2:55 AM 68.0 °F 68.0 °F 100% 30.04 in 2.0 mi SE 12.7 mph - N/A   Clear
3:15 AM 68.0 °F 68.0 °F 100% 30.04 in 2.0 mi SSE 13.8 mph - N/A   Clear
3:35 AM 68.0 °F 68.0 °F 100% 30.03 in 0.5 mi SSE 13.8 mph - N/A   Overcast
3:55 AM 68.0 °F 68.0 °F 100% 30.03 in 0.2 mi SSE 13.8 mph - N/A Fog Fog
4:15 AM 68.0 °F 68.0 °F 100% 30.04 in - SSE 9.2 mph - N/A   Overcast
4:35 AM 68.0 °F 68.0 °F 100% 30.03 in 0.2 mi SE 9.2 mph - N/A Fog Fog
4:55 AM 68.0 °F 68.0 °F 100% 30.04 in 0.2 mi SE 9.2 mph - N/A Fog Fog
5:15 AM 66.2 °F 66.2 °F 100% 30.04 in 0.2 mi SSE 11.5 mph - N/A Fog Fog
5:35 AM 66.2 °F 66.2 °F 100% 30.04 in 0.2 mi SSE 13.8 mph - N/A Fog Fog
5:55 AM 66.2 °F 66.2 °F 100% 30.04 in 0.2 mi SSE 12.7 mph - N/A Fog Fog
6:15 AM 66.2 °F 66.2 °F 100% 30.05 in 0.2 mi SSE 11.5 mph - N/A Fog Fog
6:35 AM 66.2 °F 66.2 °F 100% 30.05 in 0.2 mi SSE 12.7 mph - N/A Fog Fog
6:55 AM 66.2 °F 66.2 °F 100% 30.06 in 0.2 mi SSE 11.5 mph - N/A Fog Fog
7:15 AM 68.0 °F 68.0 °F 100% 30.06 in 0.2 mi SSE 13.8 mph - N/A Fog Fog
7:35 AM 68.0 °F 68.0 °F 100% 30.06 in 0.2 mi SSE 16.1 mph - N/A Fog Fog
7:55 AM 66.2 °F 66.2 °F 100% 30.06 in 0.2 mi SSE 18.4 mph - N/A Fog Fog
8:15 AM 68.0 °F 68.0 °F 100% 30.06 in 1.0 mi SSE 18.4 mph - N/A   Clear
8:35 AM 68.0 °F 68.0 °F 100% 30.07 in 2.5 mi SSE 16.1 mph - N/A   Clear
8:55 AM 66.2 °F 66.2 °F 100% 30.07 in 3.0 mi SSE 15.0 mph - N/A   Clear
9:15 AM 66.2 °F 66.2 °F 100% 30.07 in 4.0 mi SSE 16.1 mph - N/A   Clear
9:35 AM 66.2 °F 66.2 °F 100% 30.08 in 3.0 mi SSE 15.0 mph - N/A   Clear
9:55 AM 68.0 °F 68.0 °F 100% 30.08 in 4.0 mi SSE 15.0 mph - N/A   Clear
10:15 AM 68.0 °F 68.0 °F 100% 30.08 in 5.0 mi SSE 16.1 mph - N/A   Clear
10:35 AM 68.0 °F 68.0 °F 100% 30.07 in 5.0 mi SSE 16.1 mph - N/A   Clear
10:55 AM 68.0 °F 68.0 °F 100% 30.07 in 5.0 mi SE 17.3 mph - N/A   Clear
11:15 AM 68.0 °F 68.0 °F 100% 30.07 in 6.0 mi SSE 18.4 mph - N/A   Clear
11:35 AM 68.0 °F 68.0 °F 100% 30.06 in 7.0 mi SSE 18.4 mph - N/A   Clear
11:55 AM 66.2 °F 66.2 °F 100% 30.05 in 7.0 mi SSE 16.1 mph - N/A   Clear
12:15 PM 66.2 °F 64.4 °F 94% 30.03 in 7.0 mi SSE 16.1 mph - N/A   Clear
12:35 PM 64.4 °F 64.4 °F 100% 30.03 in 7.0 mi SSE 12.7 mph - N/A   Clear
12:55 PM 66.2 °F 64.4 °F 94% 30.03 in 8.0 mi SSE 11.5 mph - N/A   Clear
1:15 PM 66.2 °F 64.4 °F 94% 30.02 in 8.0 mi SSE 12.7 mph - N/A   Clear
1:35 PM 66.2 °F 64.4 °F 94% 30.01 in 8.0 mi SSE 15.0 mph - N/A   Clear
1:55 PM 66.2 °F 62.6 °F 88% 30.00 in 8.0 mi SSE 15.0 mph - N/A   Clear
2:15 PM 66.2 °F 62.6 °F 88% 29.99 in 8.0 mi SSE 17.3 mph - N/A   Clear
2:35 PM 66.2 °F 62.6 °F 88% 29.98 in 8.0 mi SSE 17.3 mph - N/A   Clear
2:55 PM 66.2 °F 64.4 °F 94% 29.97 in 8.0 mi SSE 20.7 mph - N/A   Clear
3:15 PM 66.2 °F 64.4 °F 94% 29.97 in 8.0 mi SSE 18.4 mph - N/A   Clear
3:35 PM 66.2 °F 62.6 °F 88% 29.96 in 8.0 mi SSE 17.3 mph - N/A   Clear
3:55 PM 66.2 °F 64.4 °F 94% 29.96 in 9.0 mi SSE 16.1 mph - N/A   Clear
4:15 PM 68.0 °F 64.4 °F 88% 29.96 in 9.0 mi SSE 16.1 mph - N/A   Clear
4:35 PM 68.0 °F 64.4 °F 88% 29.95 in 9.0 mi SE 15.0 mph - N/A   Clear
4:55 PM 68.0 °F 64.4 °F 88% 29.95 in 9.0 mi SE 13.8 mph - N/A   Clear
5:15 PM 68.0 °F 64.4 °F 88% 29.95 in 8.0 mi SE 12.7 mph - N/A   Clear
5:35 PM 66.2 °F 64.4 °F 94% 29.94 in 8.0 mi SE 15.0 mph - N/A   Clear
5:55 PM 68.0 °F 66.2 °F 94% 29.95 in 8.0 mi SE 17.3 mph - N/A   Clear
6:15 PM 68.0 °F 66.2 °F 94% 29.95 in 8.0 mi SE 18.4 mph - N/A   Clear
6:35 PM 68.0 °F 66.2 °F 94% 29.95 in 8.0 mi SE 18.4 mph - N/A   Clear
6:55 PM 66.2 °F 66.2 °F 100% 29.95 in 9.0 mi SE 17.3 mph - N/A   Clear
7:15 PM 66.2 °F 66.2 °F 100% 29.96 in 9.0 mi SE 16.1 mph - N/A   Clear
7:35 PM 66.2 °F 66.2 °F 100% 29.96 in 8.0 mi SE 16.1 mph - N/A   Clear
7:55 PM 66.2 °F 66.2 °F 100% 29.97 in 8.0 mi SE 16.1 mph - N/A   Clear
8:15 PM 66.2 °F 66.2 °F 100% 29.98 in 7.0 mi SE 15.0 mph - N/A   Clear
8:35 PM 66.2 °F 66.2 °F 100% 29.99 in 8.0 mi SE 15.0 mph - N/A   Clear
8:55 PM 66.2 °F 66.2 °F 100% 29.99 in 9.0 mi SE 13.8 mph - N/A   Clear
9:15 PM 66.2 °F 66.2 °F 100% 29.99 in 8.0 mi SE 15.0 mph - N/A   Clear
9:35 PM 66.2 °F 66.2 °F 100% 29.99 in 8.0 mi SE 16.1 mph - N/A   Clear
9:55 PM 66.2 °F 66.2 °F 100% 29.99 in 7.0 mi SE 16.1 mph - N/A   Clear
10:15 PM 66.2 °F 66.2 °F 100% 29.99 in 7.0 mi SE 17.3 mph - N/A   Clear
10:35 PM 66.2 °F 66.2 °F 100% 29.99 in 7.0 mi SE 17.3 mph - N/A   Clear
10:55 PM 66.2 °F 66.2 °F 100% 29.98 in 7.0 mi SE 19.6 mph - N/A   Clear
11:15 PM 66.2 °F 66.2 °F 100% 29.97 in 6.0 mi SE 20.7 mph - N/A   Clear
11:35 PM 66.2 °F 66.2 °F 100% 29.96 in 6.0 mi SE 20.7 mph - N/A   Clear
11:55 PM 66.2 °F 66.2 °F 100% 29.96 in 4.0 mi SE 19.6 mph - N/A   Clear